TimeMDT,TemperatureF,Dew PointF,Humidity,Sea Level PressureIn,VisibilityMPH,Wind Direction,Wind SpeedMPH,Gust SpeedMPH,PrecipitationIn,Events,Conditions,WindDirDegrees,DateUTC
12:04 AM,24.8,5.0,43,30.07,-9999.0,SSW,21.9,31.1,N/A,,Clear,210,2014-03-11 06:04:00
12:24 AM,24.8,5.0,43,30.06,-9999.0,SSW,19.6,29.9,N/A,,Clear,210,2014-03-11 06:24:00
12:44 AM,24.8,5.0,43,30.04,-9999.0,SW,25.3,35.7,N/A,,Clear,220,2014-03-11 06:44:00
1:04 AM,24.8,5.0,43,30.02,-9999.0,SW,29.9,40.3,N/A,,Clear,220,2014-03-11 07:04:00
1:24 AM,24.8,5.0,43,30.01,-9999.0,SW,25.3,35.7,N/A,,Clear,220,2014-03-11 07:24:00
1:44 AM,24.8,6.8,46,29.98,-9999.0,SW,32.2,46.0,N/A,,Clear,220,2014-03-11 07:44:00
2:04 AM,24.8,6.8,46,29.97,-9999.0,SW,29.9,47.2,N/A,,Clear,220,2014-03-11 08:04:00
2:24 AM,24.8,8.6,50,29.96,-9999.0,SW,33.4,47.2,N/A,,Clear,220,2014-03-11 08:24:00
2:44 AM,23.0,8.6,54,29.96,-9999.0,SW,38.0,49.5,N/A,,Clear,220,2014-03-11 08:44:00
3:04 AM,23.0,8.6,54,29.94,-9999.0,SW,32.2,47.2,N/A,,Clear,220,2014-03-11 09:04:00
3:24 AM,23.0,8.6,54,29.93,-9999.0,SW,27.6,46.0,N/A,,Clear,220,2014-03-11 09:24:00
3:44 AM,23.0,8.6,54,29.93,-9999.0,SW,27.6,42.6,N/A,,Mostly Cloudy,230,2014-03-11 09:44:00
4:04 AM,23.0,8.6,54,29.93,10.0,SW,27.6,41.4,N/A,,Overcast,230,2014-03-11 10:04:00
4:24 AM,21.2,8.6,58,29.92,-9999.0,SSW,26.5,39.1,N/A,,Mostly Cloudy,210,2014-03-11 10:24:00
4:44 AM,19.4,8.6,63,29.92,-9999.0,SW,21.9,32.2,N/A,,Clear,220,2014-03-11 10:44:00
5:04 AM,19.4,8.6,63,29.91,-9999.0,SW,24.2,33.4,N/A,,Clear,220,2014-03-11 11:04:00
5:24 AM,19.4,8.6,63,29.91,-9999.0,SW,23.0,32.2,N/A,,Scattered Clouds,220,2014-03-11 11:24:00
5:44 AM,19.4,8.6,63,29.90,-9999.0,SW,23.0,36.8,N/A,,Clear,220,2014-03-11 11:44:00
6:04 AM,19.4,8.6,63,29.90,-9999.0,SW,20.7,33.4,N/A,,Clear,230,2014-03-11 12:04:00
6:24 AM,17.6,8.6,68,29.90,-9999.0,SW,24.2,29.9,N/A,,Clear,220,2014-03-11 12:24:00
6:44 AM,17.6,8.6,68,29.89,-9999.0,SW,26.5,36.8,N/A,,Clear,230,2014-03-11 12:44:00
7:04 AM,19.4,6.8,58,29.89,-9999.0,SW,25.3,41.4,N/A,,Clear,230,2014-03-11 13:04:00
7:24 AM,19.4,6.8,58,29.89,-9999.0,SW,25.3,39.1,N/A,,Clear,230,2014-03-11 13:24:00
7:44 AM,17.6,6.8,63,29.90,-9999.0,SW,29.9,44.9,N/A,,Clear,230,2014-03-11 13:44:00
8:04 AM,17.6,6.8,63,29.90,-9999.0,SW,29.9,40.3,N/A,,Clear,230,2014-03-11 14:04:00
8:24 AM,17.6,6.8,63,29.90,10.0,SW,26.5,36.8,N/A,,Scattered Clouds,230,2014-03-11 14:24:00
8:44 AM,19.4,6.8,58,29.90,10.0,SW,27.6,36.8,N/A,,Scattered Clouds,230,2014-03-11 14:44:00
9:04 AM,19.4,8.6,63,29.91,10.0,SW,21.9,35.7,N/A,,Clear,230,2014-03-11 15:04:00
9:23 AM,19.4,8.6,63,29.90,10.0,SW,20.7,31.1,N/A,,Clear,220,2014-03-11 15:23:00
9:44 AM,21.2,8.6,58,29.91,10.0,SSW,23.0,34.5,N/A,,Clear,210,2014-03-11 15:44:00
10:02 AM,21.2,8.6,58,29.91,10.0,SSW,21.9,36.8,N/A,,Clear,210,2014-03-11 16:02:00
10:20 AM,21.2,8.6,58,29.91,10.0,SW,19.6,28.8,N/A,,Clear,220,2014-03-11 16:20:00
11:03 AM,19.4,8.6,63,29.93,10.0,SSW,20.7,32.2,N/A,,Scattered Clouds,200,2014-03-11 17:03:00
11:06 AM,21.2,8.6,58,29.92,10.0,SSW,18.4,32.2,N/A,,Scattered Clouds,210,2014-03-11 17:06:00
11:43 AM,21.2,5.0,50,29.92,10.0,SSW,23.0,34.5,N/A,,Clear,200,2014-03-11 17:43:00
12:04 PM,23.0,5.0,46,29.94,10.0,SSW,24.2,34.5,N/A,,Clear,210,2014-03-11 18:04:00